| time (UTC) | temp F | wind direction | speed MPH | gust MPH | rain 1hr in | rain 24hr in | rain mn in | humidity % | barometer mb |
| 20260505064508 | 55 | 84 | 0.0 | 0.0 | 0.00 | 0.56 | 0.37 | 92 | 1008.2 |
| 20260505063011 | 55 | 84 | 0.0 | 0.0 | 0.00 | 0.56 | 0.37 | 93 | 1008.1 |
| 20260505061507 | 55 | 85 | 0.0 | 0.0 | 0.00 | 0.56 | 0.37 | 93 | 1008.3 |
| 20260505060005 | 54 | 86 | 0.0 | 0.0 | 0.00 | 0.68 | 0.37 | 93 | 1008.2 |
| 20260505054504 | 54 | 85 | 0.0 | 0.0 | 0.01 | 0.68 | 0.37 | 93 | 1008.2 |
| 20260505053002 | 54 | 86 | 0.0 | 0.0 | 0.01 | 0.68 | 0.37 | 93 | 1008.2 |
| 20260505051600 | 54 | 85 | 0.0 | 0.0 | 0.02 | 0.68 | 0.37 | 92 | 1008.2 |
| 20260505041604 | 54 | 85 | 0.0 | 0.0 | 0.02 | 0.72 | 0.35 | 92 | 1008.6 |
| 20260505040051 | 54 | 85 | 0.0 | 0.0 | 0.02 | 0.72 | 0.35 | 92 | 1008.7 |
| 20260505034551 | 54 | 86 | 0.0 | 0.0 | 0.02 | 0.78 | 0.34 | 92 | 1008.8 |
| 20260505033049 | 54 | 86 | 0.0 | 0.0 | 0.06 | 0.78 | 0.34 | 92 | 1008.9 |
| 20260505031550 | 54 | 87 | 0.0 | 0.0 | 0.08 | 0.77 | 0.33 | 92 | 1009.0 |
| 20260505030057 | 54 | 87 | 0.0 | 0.0 | 0.09 | 0.77 | 0.33 | 92 | 1009.2 |
| 20260505024545 | 54 | 87 | 0.0 | 0.0 | 0.08 | 0.76 | 0.31 | 92 | 1009.3 |
| 20260505023044 | 54 | 85 | 0.0 | 0.0 | 0.06 | 0.72 | 0.28 | 92 | 1009.4 |
| 20260505021552 | 54 | 85 | 0.0 | 0.0 | 0.04 | 0.69 | 0.25 | 92 | 1009.2 |
| 20260505020052 | 54 | 85 | 0.0 | 0.0 | 0.04 | 0.69 | 0.24 | 92 | 1009.3 |
| 20260505014540 | 54 | 84 | 0.0 | 0.0 | 0.03 | 0.68 | 0.24 | 92 | 1009.6 |
| 20260505013041 | 54 | 84 | 0.0 | 0.0 | 0.02 | 0.66 | 0.22 | 92 | 1009.6 |
| 20260505011538 | 54 | 83 | 0.0 | 0.0 | 0.02 | 0.65 | 0.21 | 92 | 1009.7 |
| 20260505010059 | 54 | 41 | 0.0 | 0.0 | 0.03 | 0.65 | 0.20 | 91 | 1009.9 |
| 20260505004535 | 54 | 41 | 0.0 | 0.0 | 0.06 | 0.65 | 0.20 | 91 | 1010.0 |
| 20260505003045 | 54 | 41 | 0.0 | 0.0 | 0.06 | 0.65 | 0.20 | 91 | 1010.0 |
| 20260505001538 | 54 | 41 | 0.0 | 0.0 | 0.09 | 0.64 | 0.20 | 91 | 1010.1 |
| 20260505000037 | 54 | 41 | 0.0 | 0.0 | 0.11 | 0.61 | 0.17 | 91 | 1010.3 |
| 20260504234530 | 54 | 36 | 0.0 | 0.0 | 0.11 | 0.59 | 0.15 | 91 | 1010.4 |
| 20260504233029 | 54 | 32 | 0.0 | 0.0 | 0.12 | 0.57 | 0.14 | 90 | 1010.5 |
| 20260504231532 | 54 | 26 | 0.0 | 0.0 | 0.09 | 0.54 | 0.10 | 90 | 1010.6 |
| 20260504230025 | 54 | 16 | 0.0 | 0.0 | 0.06 | 0.50 | 0.06 | 90 | 1010.6 |
| 20260504224530 | 54 | 16 | 0.0 | 0.0 | 0.06 | 0.48 | 0.04 | 90 | 1010.6 |
| 20260504223025 | 55 | 16 | 0.0 | 0.0 | 0.04 | 0.46 | 0.02 | 89 | 1010.6 |
| 20260504221524 | 55 | 15 | 0.0 | 0.0 | 0.02 | 0.45 | 0.01 | 89 | 1010.7 |
| 20260504220019 | 55 | 21 | 0.0 | 0.0 | 0.02 | 0.44 | 0.44 | 88 | 1010.9 |
| 20260504214533 | 55 | 53 | 0.0 | 0.0 | 0.00 | 0.43 | 0.43 | 87 | 1010.9 |
| 20260504213017 | 55 | 53 | 0.0 | 0.0 | 0.00 | 0.43 | 0.43 | 87 | 1011.0 |
| 20260504211521 | 55 | 60 | 0.0 | 0.0 | 0.00 | 0.43 | 0.43 | 87 | 1011.0 |
| 20260504210019 | 55 | 59 | 0.0 | 0.0 | 0.00 | 0.43 | 0.43 | 87 | 1011.0 |
| 20260504204516 | 55 | 316 | 0.0 | 0.0 | 0.00 | 0.43 | 0.43 | 87 | 1011.0 |
| 20260504203018 | 55 | 316 | 0.0 | 0.0 | 0.00 | 0.43 | 0.43 | 86 | 1011.1 |
| 20260504201516 | 55 | 316 | 0.0 | 0.0 | 0.00 | 0.43 | 0.43 | 86 | 1011.2 |
| 20260504200018 | 55 | 316 | 0.0 | 0.0 | 0.00 | 0.43 | 0.43 | 86 | 1011.0 |
| 20260504194513 | 56 | 316 | 0.0 | 0.0 | 0.00 | 0.43 | 0.43 | 85 | 1011.1 |
| 20260504193012 | 56 | 37 | 0.0 | 0.0 | 0.00 | 0.43 | 0.43 | 86 | 1011.1 |
| 20260504191514 | 56 | 37 | 0.0 | 0.0 | 0.00 | 0.43 | 0.43 | 85 | 1011.2 |
| 20260504190012 | 56 | 28 | 0.0 | 0.0 | 0.00 | 0.43 | 0.43 | 85 | 1011.1 |
| 20260504184510 | 56 | 69 | 0.0 | 0.0 | 0.00 | 0.43 | 0.43 | 86 | 1011.1 |
| 20260504183010 | 56 | 69 | 0.0 | 0.0 | 0.00 | 0.43 | 0.43 | 86 | 1011.2 |
| 20260504181508 | 56 | 60 | 0.0 | 0.0 | 0.00 | 0.43 | 0.43 | 86 | 1011.3 |
| 20260504180008 | 56 | 105 | 0.0 | 0.0 | 0.00 | 0.43 | 0.43 | 86 | 1011.3 |
| 20260504174506 | 56 | 115 | 0.0 | 0.0 | 0.00 | 0.43 | 0.43 | 87 | 1011.3 |
| 20260504173005 | 57 | 67 | 0.0 | 0.0 | 0.00 | 0.43 | 0.43 | 87 | 1011.3 |
| 20260504171505 | 57 | 98 | 0.0 | 5.0 | 0.00 | 0.43 | 0.43 | 86 | 1011.5 |
| 20260504160105 | 57 | 234 | 0.0 | 6.0 | 0.00 | 0.43 | 0.43 | 85 | 1012.0 |
| 20260504120106 | 55 | 75 | 0.0 | 2.0 | 0.06 | 0.36 | 0.36 | 88 | 1013.5 |
| 20260504081538 | 54 | 90 | 0.0 | 2.0 | 0.00 | 0.32 | 0.30 | 87 | 1013.7 |